Flag for Jamaica Weather past 2 weeks in May Pen, Jamaica

79 °F

Thundershowers. Passing clouds.

Feels Like: 81 °F
Forecast: 72 / 87 °F
Wind: 2 mph from North

Location: Kingston / Norman Manley

Current Time: Nov 27, 2015 at 7:11:03 AM

Latest Report: Nov 27, 2015 at 6:00 AM

Visibility: N/A

Pressure: 29.89 "Hg

Humidity: 74%

Dew point: 70 °F

Location of May PenLocation

Historic Weather in May Pen — Graph


May Pen temperature yesterday

Maximum temperature yesterday: 86 °F (at 3:00 PM)
Minimum temperature yesterday: 77 °F (at 7:00 AM)
Average temperature yesterday: 81 °F

Past Weeks' High & Low Weather Summary

High93 °F (Nov 14, 2:00 PM)89% (Nov 15, 7:00 AM)29.98 "Hg (Nov 15, 7:00 AM)
Low77 °F (Nov 20, 7:00 AM)52% (Nov 12, 12:00 PM)29.53 "Hg (Nov 17, 4:00 AM)
Average84 °F71%29.88 "Hg
* Reported Nov 12 6:00 AM — Nov 27 6:00 AM, May Pen, Weather by CustomWeather, © 2015

Note: Actual official high and low records may vary slightly from our data, if they occured in-between our weather recording intervals... More about our weather records


May Pen weather history for previous 24 hours

Time TempWeatherWind HumidityBarometerVisibility
6:00 AM
Fri, Nov 27
79 °FThundershowers. Passing clouds.2 mph74%29.89 "HgN/A
5:00 AM79 °FThundershowers. Passing clouds.10 mph79%29.86 "HgN/A
4:00 AM81 °FThundershowers. Passing clouds.3 mph74%29.86 "HgN/A
3:00 AM81 °FPartly cloudy.7 mph74%29.89 "HgN/A
2:00 AM81 °FThundershowers. Partly cloudy.6 mph74%29.89 "HgN/A
1:00 AM79 °FThundershowers. Partly cloudy.6 mph79%29.92 "HgN/A
12:00 AM81 °FThundershowers. Passing clouds.3 mph70%29.92 "HgN/A
11:00 PM
Thu, Nov 26
81 °FThundershowers. Passing clouds.6 mph74%29.95 "HgN/A
10:00 PM81 °FThundershowers. Passing clouds.8 mph74%29.92 "HgN/A
9:00 PM79 °FThundershowers. Passing clouds.10 mph79%29.92 "HgN/A
8:00 PM81 °FThundershowers. Passing clouds.12 mph74%29.92 "HgN/A
7:00 PM81 °FThundershowers. Passing clouds.9 mph79%29.92 "HgN/A
6:00 PM82 °FThundershowers. Passing clouds.5 mph70%29.92 "HgN/A
5:00 PM82 °FScattered clouds.15 mph70%29.89 "HgN/A
4:00 PM86 °FScattered clouds.23 mph70%29.89 "HgN/A
3:00 PM86 °FScattered clouds.7 mph66%29.89 "HgN/A
2:00 PM84 °FPartly sunny.3 mph70%29.92 "HgN/A
1:00 PM84 °FPartly sunny.9 mph70%29.92 "HgN/A
12:00 PM82 °FBroken clouds.7 mph70%29.95 "HgN/A
11:30 AM82 °FPartly sunny.7 mph74%29.98 "HgN/A
10:00 AM81 °FPartly sunny.9 mph79%29.98 "HgN/A
9:00 AM79 °FBroken clouds.14 mph84%29.98 "HgN/A
8:00 AM81 °FPartly sunny.7 mph79%29.95 "HgN/A
7:00 AM77 °FSprinkles. Broken clouds.9 mph89%29.95 "HgN/A
Weather by CustomWeather, © 2015

See weather overviewHow to use our weather pages